Time,TemperatureF,DewpointF,PressureIn,WindDirection,WindDirectionDegrees,WindSpeedMPH,WindSpeedGustMPH,Humidity,HourlyPrecipIn,Conditions,Clouds,dailyrainin,SoftwareType,DateUTC
2013-03-06 00:01:00,62.0,-99.9,-100.00,WSW,253,16.0,21.0,-999,-99.99,,,-99.99,,2013-03-06 08:01:00,
2013-03-06 02:10:00,61.0,-99.9,-100.00,West,279,10.0,21.0,-999,-99.99,,,-99.99,,2013-03-06 10:10:00,
2013-03-06 02:52:00,61.0,-99.9,-100.00,West,279,10.0,21.0,-999,-99.99,,,-99.99,,2013-03-06 10:52:00,
2013-03-06 03:02:00,61.0,-99.9,-100.00,West,279,10.0,21.0,-999,-99.99,,,-99.99,,2013-03-06 11:02:00,
2013-03-06 03:23:00,61.0,-99.9,-100.00,West,271,7.0,17.0,-999,-99.99,,,-99.99,,2013-03-06 11:23:00,
2013-03-06 03:32:00,61.0,-99.9,-100.00,West,271,7.0,17.0,-999,-99.99,,,-99.99,,2013-03-06 11:32:00,
2013-03-06 04:02:00,60.0,-99.9,-100.00,West,268,8.0,25.0,-999,-99.99,,,-99.99,,2013-03-06 12:02:00,
2013-03-06 04:12:00,60.0,-99.9,-100.00,West,268,8.0,25.0,-999,-99.99,,,-99.99,,2013-03-06 12:12:00,
2013-03-06 04:53:00,60.0,-99.9,-100.00,WNW,292,11.0,19.0,-999,-99.99,,,-99.99,,2013-03-06 12:53:00,
2013-03-06 05:02:00,60.0,-99.9,-100.00,West,271,7.0,22.0,-999,-99.99,,,-99.99,,2013-03-06 13:02:00,
2013-03-06 05:12:00,60.0,-99.9,-100.00,West,271,7.0,22.0,-999,-99.99,,,-99.99,,2013-03-06 13:12:00,
2013-03-06 05:22:00,60.0,-99.9,-100.00,West,271,7.0,22.0,-999,-99.99,,,-99.99,,2013-03-06 13:22:00,
2013-03-06 06:00:00,59.0,-99.9,-100.00,WSW,256,12.0,18.0,-999,-99.99,,,-99.99,,2013-03-06 14:00:00,
2013-03-06 06:32:00,58.0,-99.9,-100.00,WSW,241,14.0,20.0,-999,-99.99,,,-99.99,,2013-03-06 14:32:00,
2013-03-06 06:42:00,58.0,-99.9,-100.00,WSW,241,14.0,20.0,-999,-99.99,,,-99.99,,2013-03-06 14:42:00,
2013-03-06 06:53:00,59.0,-99.9,-100.00,WSW,256,12.0,18.0,-999,-99.99,,,-99.99,,2013-03-06 14:53:00,
2013-03-06 08:32:00,62.0,-99.9,-100.00,WSW,256,12.0,21.0,-999,-99.99,,,-99.99,,2013-03-06 16:32:00,
2013-03-06 08:42:00,62.0,-99.9,-100.00,WSW,256,12.0,21.0,-999,-99.99,,,-99.99,,2013-03-06 16:42:00,
2013-03-06 10:00:00,66.0,-99.9,-100.00,West,279,15.0,15.0,-999,-99.99,,,-99.99,,2013-03-06 18:00:00,
2013-03-06 10:53:00,66.0,-99.9,-100.00,West,279,15.0,15.0,-999,-99.99,,,-99.99,,2013-03-06 18:53:00,
2013-03-06 13:20:00,73.0,-99.9,-100.00,NW,324,0.0,16.0,-999,-99.99,,,-99.99,,2013-03-06 21:20:00,
2013-03-06 13:52:00,73.0,-99.9,-100.00,WSW,252,2.0,11.0,-999,-99.99,,,-99.99,,2013-03-06 21:52:00,
2013-03-06 14:02:00,73.0,-99.9,-100.00,NW,324,0.0,16.0,-999,-99.99,,,-99.99,,2013-03-06 22:02:00,
2013-03-06 14:12:00,73.0,-99.9,-100.00,NW,324,0.0,16.0,-999,-99.99,,,-99.99,,2013-03-06 22:12:00,
2013-03-06 15:02:00,73.0,-99.9,-100.00,West,279,13.0,16.0,-999,-99.99,,,-99.99,,2013-03-06 23:02:00,
2013-03-06 15:11:00,73.0,-99.9,-100.00,West,279,13.0,16.0,-999,-99.99,,,-99.99,,2013-03-06 23:11:00,
2013-03-06 15:22:00,75.0,-99.9,-100.00,West,276,2.0,14.0,-999,-99.99,,,-99.99,,2013-03-06 23:22:00,
2013-03-06 15:32:00,75.0,-99.9,-100.00,West,276,2.0,14.0,-999,-99.99,,,-99.99,,2013-03-06 23:32:00,
2013-03-06 17:20:00,71.0,-99.9,-100.00,West,276,9.0,23.0,-999,-99.99,,,-99.99,,2013-03-07 01:20:00,
2013-03-06 17:50:00,68.0,-99.9,-100.00,West,267,11.0,24.0,-999,-99.99,,,-99.99,,2013-03-07 01:50:00,
2013-03-06 18:01:00,71.0,-99.9,-100.00,West,276,9.0,23.0,-999,-99.99,,,-99.99,,2013-03-07 02:01:00,
2013-03-06 18:11:00,71.0,-99.9,-100.00,West,276,9.0,23.0,-999,-99.99,,,-99.99,,2013-03-07 02:11:00,
2013-03-06 18:32:00,68.0,-99.9,-100.00,West,267,11.0,24.0,-999,-99.99,,,-99.99,,2013-03-07 02:32:00,
2013-03-06 18:42:00,68.0,-99.9,-100.00,West,267,11.0,24.0,-999,-99.99,,,-99.99,,2013-03-07 02:42:00,
2013-03-06 19:00:00,68.0,-99.9,-100.00,WNW,285,13.0,23.0,-999,-99.99,,,-99.99,,2013-03-07 03:00:00,
2013-03-06 19:02:00,68.0,-99.9,-100.00,WNW,290,7.0,22.0,-999,-99.99,,,-99.99,,2013-03-07 03:02:00,
2013-03-06 19:12:00,68.0,-99.9,-100.00,WNW,290,7.0,22.0,-999,-99.99,,,-99.99,,2013-03-07 03:12:00,
2013-03-06 19:32:00,68.0,-99.9,-100.00,WNW,285,13.0,23.0,-999,-99.99,,,-99.99,,2013-03-07 03:32:00,
2013-03-06 19:42:00,68.0,-99.9,-100.00,WNW,285,13.0,23.0,-999,-99.99,,,-99.99,,2013-03-07 03:42:00,
2013-03-06 19:52:00,68.0,-99.9,-100.00,WNW,285,13.0,23.0,-999,-99.99,,,-99.99,,2013-03-07 03:52:00,
2013-03-06 20:40:00,65.0,-99.9,-100.00,SW,231,1.0,26.0,-999,-99.99,,,-99.99,,2013-03-07 04:40:00,
2013-03-06 21:23:00,65.0,-99.9,-100.00,SW,231,1.0,26.0,-999,-99.99,,,-99.99,,2013-03-07 05:23:00,
2013-03-06 21:32:00,65.0,-99.9,-100.00,SW,231,1.0,26.0,-999,-99.99,,,-99.99,,2013-03-07 05:32:00,
2013-03-06 22:40:00,62.0,-99.9,-100.00,West,269,3.0,6.0,-999,-99.99,,,-99.99,,2013-03-07 06:40:00,
2013-03-06 23:22:00,62.0,-99.9,-100.00,West,269,3.0,6.0,-999,-99.99,,,-99.99,,2013-03-07 07:22:00,
2013-03-06 23:32:00,62.0,-99.9,-100.00,West,269,3.0,6.0,-999,-99.99,,,-99.99,,2013-03-07 07:32:00,